Hourly Data Report for October 01, 2016

All times are specified in Local Standard Time (LST). Add 1 hour to adjust for Daylight Saving Time where and when it is observed.

KUGAARUK CLIMATE
NUNAVUT

68°32'15.060" N
89°47'47.020" W
15.80 m
2303094
71407
NBB

Download Data

Hourly Data (October 2016)
Hourly Data Report for October 1, 2016
Temp Definition
°C
Dew Point Temp Definition
°C
Rel Hum Definition
%
Wind Dir Definition
10's deg

Wind Spd Definition
km/h
Visibility Definition
km
Stn Press Definition
kPa
Hmdx Definition


Wind Chill Definition


Weather Definition


TIME
00:00 0.0 -1.5 89 2 11   101.83   -4 LegendNANA
01:00 -0.5 -2.0 90 1 5   101.89   -2 LegendNANA
02:00 -1.2 -2.4 92 35 12   101.94   -5 LegendNANA
03:00 -1.2 -2.8 89 29 6   101.96   -3 LegendNANA
04:00 -1.3 -2.7 90 33 11   101.98   -5 LegendNANA
05:00 -1.2 -2.9 89 31 12   101.99   -5 LegendNANA
06:00 -1.0 -2.4 90 29 12   101.99   -5 LegendNANA
07:00 -0.4 -3.1 82 36 17   101.99   -5 LegendNANA
08:00 -0.8 -3.4 82 1 19   102.01   -6 LegendNANA
09:00 -0.6 -3.6 81 35 14   102.02   -5 LegendNANA
10:00 -0.8 -4.1 78 35 16   102.03   -6 LegendNANA
11:00 -1.1 -4.7 76 33 18   102.06   -6 LegendNANA
12:00 -1.4 -4.4 80 33 18   102.08   -7 LegendNANA
13:00 -1.8 -5.2 77 33 17   102.10   -7 LegendNANA
14:00 -2.1 -5.7 76 32 18   102.12   -8 LegendNANA
15:00 -2.1 -5.5 77 32 17   102.14   -7 LegendNANA
16:00 -2.1 -5.3 79 33 18   102.15   -8 LegendNANA
17:00 -2.1 -5.5 78 33 15   102.15   -7 LegendNANA
18:00 -1.9 -5.3 78 32 17   102.15   -7 LegendNANA
19:00 -1.9 -5.1 79 32 19   102.15   -7 LegendNANA
20:00 -1.8 -4.7 81 31 17   102.17   -7 LegendNANA
21:00 -1.4 -3.7 84 30 15   102.17   -6 LegendNANA
22:00 -1.6 -3.3 88 30 14   102.19   -6 LegendNANA
23:00 -1.1 -3.3 85 31 13   102.21   -5 LegendNANA

Notes on Data Quality.

Legend

  • E = Estimated
  • M = Missing
  • NA = Not Available
  • ‡ = Partner data that is not subject to review by the National Climate Archives
Date modified: